,,,PA_Meas_PMT16A,,PR_Meas_QMR101_102,,RH_Meas_QMH101,,SR_Meas_QMS101,,TA_Meas_QMH101,,GenWind,,GenWind,
date,time,status,PA,status,PR,status,RH,status,SR,status,TA,status,DirAvg,status,SpdAvg,
2011-03-23, 00:00:04,VALID,999.571,VALID,0,VALID,92.3794,VALID,0,VALID,23.9531,VALID,58,VALID,0,
2011-03-23, 00:01:04,VALID,999.531,VALID,0,VALID,92.41,VALID,0,VALID,23.9939,VALID,58,VALID,0,
2011-03-23, 00:02:04,VALID,999.511,VALID,0,VALID,92.4023,VALID,0,VALID,23.9744,VALID,58,VALID,0,
2011-03-23, 00:03:04,VALID,999.498,VALID,0,VALID,92.4405,VALID,0,VALID,23.9744,VALID,58,VALID,0,
2011-03-23, 00:04:04,VALID,999.5,VALID,0,VALID,92.4481,VALID,0,VALID,23.9744,VALID,58,VALID,0,
2011-03-23, 00:05:04,VALID,999.454,VALID,0,VALID,92.4557,VALID,0,VALID,23.9744,VALID,58,VALID,0,
2011-03-23, 00:06:04,VALID,999.457,VALID,0,VALID,92.471,VALID,0,VALID,23.9744,VALID,58,VALID,0,
2011-03-23, 00:07:04,VALID,999.465,VALID,0,VALID,92.4863,VALID,0,VALID,23.9744,VALID,58,VALID,0,
2011-03-23, 00:08:04,VALID,999.419,VALID,0,VALID,92.5091,VALID,0,VALID,23.9744,VALID,58,VALID,0,
2011-03-23, 00:09:04,VALID,999.416,VALID,0,VALID,92.4863,VALID,0,VALID,23.9744,VALID,58,VALID,0,
2011-03-23, 00:10:04,VALID,999.421,VALID,0,VALID,92.5091,VALID,0,VALID,23.9744,VALID,58,VALID,0,
2011-03-23, 00:11:04,VALID,999.393,VALID,0,VALID,92.5015,VALID,0,VALID,23.9549,VALID,58,VALID,0,
2011-03-23, 00:12:04,VALID,999.395,VALID,0,VALID,92.4939,VALID,0,VALID,23.9549,VALID,58,VALID,0,
2011-03-23, 00:13:04,VALID,999.401,VALID,0,VALID,92.4863,VALID,0,VALID,23.9354,VALID,58,VALID,0,
2011-03-23, 00:14:04,VALID,999.372,VALID,0,VALID,92.5015,VALID,0,VALID,23.914,VALID,58,VALID,0,
2011-03-23, 00:15:04,VALID,999.382,VALID,0,VALID,92.5015,VALID,0,VALID,23.9354,VALID,58,VALID,0,
2011-03-23, 00:16:04,VALID,999.396,VALID,0,VALID,92.471,VALID,0,VALID,23.9354,VALID,58,VALID,0,
2011-03-23, 00:17:04,VALID,999.345,VALID,0,VALID,92.471,VALID,0,VALID,23.9354,VALID,58,VALID,0,
2011-03-23, 00:18:04,VALID,999.341,VALID,0,VALID,92.4634,VALID,0,VALID,23.8963,VALID,57,VALID,0,
2011-03-23, 00:19:04,VALID,999.314,VALID,0,VALID,92.4557,VALID,0,VALID,23.8963,VALID,57,VALID,0,
2011-03-23, 00:20:04,VALID,999.293,VALID,0,VALID,92.4634,VALID,0,VALID,23.8945,VALID,57,VALID,0,
2011-03-23, 00:21:04,VALID,999.278,VALID,0,VALID,92.4328,VALID,0.112286,VALID,23.9159,VALID,57,VALID,0,
2011-03-23, 00:22:04,VALID,999.291,VALID,0,VALID,92.4023,VALID,0,VALID,23.8963,VALID,57,VALID,0,
2011-03-23, 00:23:04,VALID,999.282,VALID,0,VALID,92.4023,VALID,0,VALID,23.8963,VALID,57,VALID,0,
2011-03-23, 00:24:04,VALID,999.285,VALID,0,VALID,92.3871,VALID,0,VALID,23.8963,VALID,57,VALID,0,
2011-03-23, 00:25:04,VALID,999.251,VALID,0,VALID,92.3947,VALID,0,VALID,23.8963,VALID,57,VALID,0,
2011-03-23, 00:26:04,VALID,999.24,VALID,0,VALID,92.41,VALID,0,VALID,23.8963,VALID,57,VALID,0,
2011-03-23, 00:27:04,VALID,999.217,VALID,0,VALID,92.4176,VALID,0,VALID,23.8963,VALID,57,VALID,0,
2011-03-23, 00:28:04,VALID,999.237,VALID,0,VALID,92.4252,VALID,0,VALID,23.8963,VALID,57,VALID,0,
2011-03-23, 00:29:04,VALID,999.256,VALID,0,VALID,92.4328,VALID,0,VALID,23.8768,VALID,57,VALID,0,
2011-03-23, 00:30:04,VALID,999.2,VALID,0,VALID,92.4481,VALID,0,VALID,23.8573,VALID,57,VALID,0,
2011-03-23, 00:31:04,VALID,999.201,VALID,0,VALID,92.4481,VALID,0,VALID,23.8573,VALID,57,VALID,0,
2011-03-23, 00:32:04,VALID,999.191,VALID,0,VALID,92.471,VALID,0,VALID,23.8573,VALID,57,VALID,0,
2011-03-23, 00:33:04,VALID,999.171,VALID,0,VALID,92.4863,VALID,0,VALID,23.836,VALID,57,VALID,0,
2011-03-23, 00:34:04,VALID,999.148,VALID,0,VALID,92.5091,VALID,0,VALID,23.8573,VALID,33,VALID,0,
2011-03-23, 00:35:04,VALID,999.175,VALID,0,VALID,92.5091,VALID,0,VALID,23.836,VALID,33,VALID,0,
2011-03-23, 00:36:04,VALID,999.131,VALID,0,VALID,92.5244,VALID,0,VALID,23.8573,VALID,33,VALID,0,
2011-03-23, 00:37:04,VALID,999.138,VALID,0,VALID,92.5091,VALID,0,VALID,23.8165,VALID,33,VALID,0,
2011-03-23, 00:38:04,VALID,999.121,VALID,0,VALID,92.5168,VALID,0,VALID,23.8378,VALID,33,VALID,0,
2011-03-23, 00:39:04,VALID,999.115,VALID,0,VALID,92.5397,VALID,0,VALID,23.8378,VALID,33,VALID,0,
2011-03-23, 00:40:04,VALID,999.101,VALID,0,VALID,92.5397,VALID,0,VALID,23.8378,VALID,33,VALID,0,
2011-03-23, 00:41:04,VALID,999.099,VALID,0,VALID,92.5397,VALID,0,VALID,23.8378,VALID,33,VALID,0,
2011-03-23, 00:42:04,VALID,999.082,VALID,0,VALID,92.532,VALID,0,VALID,23.8378,VALID,33,VALID,0,
2011-03-23, 00:43:04,VALID,999.12,VALID,0,VALID,92.5397,VALID,0,VALID,23.8573,VALID,33,VALID,0,
2011-03-23, 00:44:04,VALID,999.083,VALID,0,VALID,92.5244,VALID,0,VALID,23.8378,VALID,33,VALID,0,
2011-03-23, 00:45:04,VALID,999.084,VALID,0,VALID,92.5244,VALID,0,VALID,23.8378,VALID,33,VALID,0,
2011-03-23, 00:46:04,VALID,999.078,VALID,0,VALID,92.5397,VALID,0,VALID,23.8165,VALID,33,VALID,0,
2011-03-23, 00:47:04,VALID,999.048,VALID,0,VALID,92.5015,VALID,0.112286,VALID,23.8165,VALID,33,VALID,0,
2011-03-23, 00:48:04,VALID,999.026,VALID,0,VALID,92.5015,VALID,0,VALID,23.836,VALID,33,VALID,0,
2011-03-23, 00:49:04,VALID,999.022,VALID,0,VALID,92.5015,VALID,0,VALID,23.8165,VALID,33,VALID,0,
2011-03-23, 00:50:04,VALID,999.009,VALID,0,VALID,92.5015,VALID,0,VALID,23.8165,VALID,33,VALID,0,
2011-03-23, 00:51:04,VALID,999.011,VALID,0,VALID,92.5015,VALID,0,VALID,23.8165,VALID,33,VALID,0,
2011-03-23, 00:52:04,VALID,999.018,VALID,0,VALID,92.5244,VALID,0,VALID,23.8378,VALID,33,VALID,0,
2011-03-23, 00:53:04,VALID,998.971,VALID,0,VALID,92.5244,VALID,0,VALID,23.8165,VALID,33,VALID,0,
2011-03-23, 00:54:04,VALID,998.99,VALID,0,VALID,92.5473,VALID,0,VALID,23.8165,VALID,33,VALID,0,
2011-03-23, 00:55:04,VALID,998.958,VALID,0,VALID,92.5778,VALID,0,VALID,23.8378,VALID,33,VALID,0,
2011-03-23, 00:56:04,VALID,998.931,VALID,0,VALID,92.5702,VALID,0,VALID,23.8165,VALID,33,VALID,0,
2011-03-23, 00:57:04,VALID,998.942,VALID,0,VALID,92.5702,VALID,0,VALID,23.8165,VALID,33,VALID,0,
2011-03-23, 00:58:04,VALID,998.922,VALID,0,VALID,92.6236,VALID,0,VALID,23.8165,VALID,81,VALID,0,
2011-03-23, 00:59:04,VALID,998.912,VALID,0,VALID,92.6236,VALID,0,VALID,23.8378,VALID,81,VALID,0,
2011-03-23, 01:00:04,VALID,998.921,VALID,0,VALID,92.6465,VALID,0,VALID,23.8378,VALID,85,VALID,0,
2011-03-23, 01:01:04,VALID,998.87,VALID,0,VALID,92.6541,VALID,0,VALID,23.8183,VALID,85,VALID,0,
2011-03-23, 01:02:04,VALID,998.829,VALID,0,VALID,92.6541,VALID,0,VALID,23.8183,VALID,85,VALID,0,
2011-03-23, 01:03:04,VALID,998.866,VALID,0,VALID,92.6617,VALID,0,VALID,23.7988,VALID,85,VALID,0,
2011-03-23, 01:04:04,VALID,998.854,VALID,0,VALID,92.6694,VALID,0,VALID,23.7988,VALID,85,VALID,0,
2011-03-23, 01:05:04,VALID,998.819,VALID,0,VALID,92.6465,VALID,0,VALID,23.7988,VALID,85,VALID,0,
2011-03-23, 01:06:04,VALID,998.818,VALID,0,VALID,92.6465,VALID,0,VALID,23.7793,VALID,85,VALID,0,
2011-03-23, 01:07:04,VALID,998.812,VALID,0,VALID,92.6465,VALID,0,VALID,23.7988,VALID,85,VALID,0,
2011-03-23, 01:08:04,VALID,998.812,VALID,0,VALID,92.6617,VALID,0,VALID,23.7793,VALID,85,VALID,0,
2011-03-23, 01:09:04,VALID,998.807,VALID,0,VALID,92.6465,VALID,0,VALID,23.7793,VALID,85,VALID,0,
2011-03-23, 01:10:04,VALID,998.802,VALID,0,VALID,92.6465,VALID,0,VALID,23.7793,VALID,85,VALID,0,
2011-03-23, 01:11:04,VALID,998.794,VALID,0,VALID,92.6465,VALID,0,VALID,23.7793,VALID,85,VALID,0,
2011-03-23, 01:12:04,VALID,998.754,VALID,0,VALID,92.6541,VALID,0,VALID,23.7793,VALID,85,VALID,0,
2011-03-23, 01:13:04,VALID,998.775,VALID,0,VALID,92.6617,VALID,0,VALID,23.7597,VALID,85,VALID,0,
2011-03-23, 01:14:04,VALID,998.745,VALID,0,VALID,92.6617,VALID,0,VALID,23.7189,VALID,85,VALID,0,
2011-03-23, 01:15:04,VALID,998.732,VALID,0,VALID,92.6465,VALID,0,VALID,23.7402,VALID,85,VALID,0,
2011-03-23, 01:16:04,VALID,998.738,VALID,0,VALID,92.6617,VALID,0,VALID,23.7402,VALID,68,VALID,0,
2011-03-23, 01:17:04,VALID,998.703,VALID,0,VALID,92.6541,VALID,0,VALID,23.7402,VALID,68,VALID,0,
2011-03-23, 01:18:04,VALID,998.706,VALID,0,VALID,92.6617,VALID,0,VALID,23.7207,VALID,68,VALID,0,
2011-03-23, 01:19:04,VALID,998.678,VALID,0,VALID,92.6236,VALID,0,VALID,23.7012,VALID,68,VALID,0,
2011-03-23, 01:20:04,VALID,998.685,VALID,0,VALID,92.6541,VALID,0,VALID,23.7012,VALID,68,VALID,0,
2011-03-23, 01:21:04,VALID,998.679,VALID,0,VALID,92.6388,VALID,0,VALID,23.7012,VALID,68,VALID,0,
2011-03-23, 01:22:04,VALID,998.662,VALID,0,VALID,92.6541,VALID,0,VALID,23.6994,VALID,68,VALID,0,
2011-03-23, 01:23:04,VALID,998.657,VALID,0,VALID,92.6617,VALID,0,VALID,23.7207,VALID,68,VALID,0,
2011-03-23, 01:24:04,VALID,998.653,VALID,0,VALID,92.6617,VALID,0,VALID,23.7189,VALID,68,VALID,0,
2011-03-23, 01:25:04,VALID,998.636,VALID,0,VALID,92.6617,VALID,0,VALID,23.7207,VALID,68,VALID,0,
2011-03-23, 01:26:04,VALID,998.617,VALID,0,VALID,92.677,VALID,0,VALID,23.7012,VALID,68,VALID,0,
2011-03-23, 01:27:04,VALID,998.629,VALID,0,VALID,92.6999,VALID,0,VALID,23.7207,VALID,68,VALID,0,
2011-03-23, 01:28:04,VALID,998.617,VALID,0,VALID,92.7151,VALID,0,VALID,23.7012,VALID,68,VALID,0,
2011-03-23, 01:29:04,VALID,998.6,VALID,0,VALID,92.7151,VALID,0,VALID,23.7012,VALID,68,VALID,0,
2011-03-23, 01:30:04,VALID,998.591,VALID,0,VALID,92.7228,VALID,0,VALID,23.7207,VALID,68,VALID,0,
2011-03-23, 01:31:04,VALID,998.586,VALID,0,VALID,92.7228,VALID,0,VALID,23.7012,VALID,68,VALID,0,
2011-03-23, 01:32:04,VALID,998.617,VALID,0,VALID,92.7457,VALID,0,VALID,23.6817,VALID,68,VALID,0,
2011-03-23, 01:33:04,VALID,998.589,VALID,0,VALID,92.7457,VALID,0,VALID,23.6622,VALID,68,VALID,0,
2011-03-23, 01:34:04,VALID,998.623,VALID,0,VALID,92.7609,VALID,0,VALID,23.6622,VALID,68,VALID,0,
2011-03-23, 01:35:04,VALID,998.63,VALID,0,VALID,92.7685,VALID,0,VALID,23.6622,VALID,68,VALID,0,
2011-03-23, 01:36:04,VALID,998.636,VALID,0,VALID,92.7762,VALID,0,VALID,23.6622,VALID,68,VALID,0,
2011-03-23, 01:37:04,VALID,998.609,VALID,0,VALID,92.7838,VALID,0,VALID,23.6817,VALID,68,VALID,0,
2011-03-23, 01:38:04,VALID,998.599,VALID,0,VALID,92.8067,VALID,0,VALID,23.6622,VALID,68,VALID,0,
2011-03-23, 01:39:04,VALID,998.626,VALID,0,VALID,92.7914,VALID,0,VALID,23.6817,VALID,68,VALID,0,
2011-03-23, 01:40:04,VALID,998.61,VALID,0,VALID,92.8067,VALID,0,VALID,23.6604,VALID,68,VALID,0,
2011-03-23, 01:41:04,VALID,998.592,VALID,0,VALID,92.8143,VALID,0,VALID,23.6622,VALID,68,VALID,0,
2011-03-23, 01:42:04,VALID,998.632,VALID,0,VALID,92.822,VALID,0,VALID,23.6622,VALID,68,VALID,0,
2011-03-23, 01:43:04,VALID,998.593,VALID,0,VALID,92.8143,VALID,0,VALID,23.6622,VALID,68,VALID,0,
2011-03-23, 01:44:04,VALID,998.607,VALID,0,VALID,92.822,VALID,0,VALID,23.6622,VALID,68,VALID,0,
2011-03-23, 01:45:04,VALID,998.573,VALID,0,VALID,92.822,VALID,0,VALID,23.6214,VALID,68,VALID,0,
2011-03-23, 01:46:04,VALID,998.567,VALID,0,VALID,92.8525,VALID,0,VALID,23.6427,VALID,68,VALID,0,
2011-03-23, 01:47:04,VALID,998.588,VALID,0,VALID,92.8296,VALID,0,VALID,23.6214,VALID,68,VALID,0,
2011-03-23, 01:48:04,VALID,998.607,VALID,0,VALID,92.822,VALID,0,VALID,23.6427,VALID,68,VALID,0,
2011-03-23, 01:49:04,VALID,998.594,VALID,0,VALID,92.8143,VALID,0,VALID,23.6427,VALID,68,VALID,0,
2011-03-23, 01:50:04,VALID,998.607,VALID,0,VALID,92.822,VALID,0,VALID,23.6427,VALID,68,VALID,0,
2011-03-23, 01:51:04,VALID,998.6,VALID,0,VALID,92.8067,VALID,0,VALID,23.6427,VALID,68,VALID,0,
2011-03-23, 01:52:04,VALID,998.596,VALID,0,VALID,92.8143,VALID,0,VALID,23.6622,VALID,68,VALID,0,
2011-03-23, 01:53:04,VALID,998.614,VALID,0,VALID,92.8067,VALID,0,VALID,23.6622,VALID,68,VALID,0,
2011-03-23, 01:54:04,VALID,998.611,VALID,0,VALID,92.8067,VALID,0,VALID,23.6622,VALID,68,VALID,0,
2011-03-23, 01:55:04,VALID,998.576,VALID,0,VALID,92.7838,VALID,0,VALID,23.6622,VALID,68,VALID,0,
2011-03-23, 01:56:04,VALID,998.57,VALID,0,VALID,92.822,VALID,0,VALID,23.6622,VALID,136,VALID,0,
2011-03-23, 01:57:04,VALID,998.551,VALID,0,VALID,92.7838,VALID,0,VALID,23.6427,VALID,146,VALID,0,
2011-03-23, 01:58:04,VALID,998.532,VALID,0,VALID,92.7838,VALID,0,VALID,23.6427,VALID,146,VALID,0,
2011-03-23, 01:59:04,VALID,998.52,VALID,0,VALID,92.738,VALID,0,VALID,23.6427,VALID,146,VALID,0,
2011-03-23, 02:00:04,VALID,998.507,VALID,0,VALID,92.7533,VALID,0,VALID,23.6622,VALID,146,VALID,0.415234,
2011-03-23, 02:01:04,VALID,998.517,VALID,0,VALID,92.6999,VALID,0,VALID,23.6427,VALID,146,VALID,0.596875,
2011-03-23, 02:02:04,VALID,998.5,VALID,0,VALID,92.6541,VALID,0,VALID,23.6622,VALID,146,VALID,0.553125,
2011-03-23, 02:03:04,VALID,998.536,VALID,0,VALID,92.6312,VALID,0,VALID,23.6817,VALID,146,VALID,0.0703125,
2011-03-23, 02:04:04,VALID,998.512,VALID,0,VALID,92.6083,VALID,0,VALID,23.7012,VALID,146,VALID,0,
2011-03-23, 02:05:04,VALID,998.505,VALID,0,VALID,92.5549,VALID,0,VALID,23.7012,VALID,146,VALID,0.438281,
2011-03-23, 02:06:04,VALID,998.513,VALID,0,VALID,92.5397,VALID,0,VALID,23.7207,VALID,146,VALID,0.624219,
2011-03-23, 02:07:04,VALID,998.491,VALID,0,VALID,92.4786,VALID,0,VALID,23.7012,VALID,145,VALID,0.657422,
2011-03-23, 02:08:04,VALID,998.493,VALID,0,VALID,92.4328,VALID,0,VALID,23.7207,VALID,145,VALID,0.95625,
2011-03-23, 02:09:04,VALID,998.473,VALID,0,VALID,92.3794,VALID,0,VALID,23.7207,VALID,140,VALID,0.647656,
2011-03-23, 02:10:04,VALID,998.449,VALID,0,VALID,92.3108,VALID,0,VALID,23.7012,VALID,129,VALID,0.662109,
2011-03-23, 02:11:04,VALID,998.474,VALID,0,VALID,92.2421,VALID,0,VALID,23.7189,VALID,129,VALID,0.519922,
2011-03-23, 02:12:04,VALID,998.46,VALID,0,VALID,92.1887,VALID,0,VALID,23.7207,VALID,97,VALID,0.736328,
2011-03-23, 02:13:04,VALID,998.463,VALID,0,VALID,92.1124,VALID,0,VALID,23.7207,VALID,97,VALID,0.660547,
2011-03-23, 02:14:04,VALID,998.46,VALID,0,VALID,92.0437,VALID,0,VALID,23.7207,VALID,100,VALID,0.642969,
2011-03-23, 02:15:04,VALID,998.437,VALID,0,VALID,91.9751,VALID,0,VALID,23.7207,VALID,103,VALID,0.549609,
2011-03-23, 02:16:04,VALID,998.498,VALID,0,VALID,91.9522,VALID,0,VALID,23.7207,VALID,103,VALID,0.0292969,
2011-03-23, 02:17:04,VALID,998.488,VALID,0,VALID,91.8988,VALID,0,VALID,23.7207,VALID,103,VALID,0,
2011-03-23, 02:18:04,VALID,998.46,VALID,0,VALID,91.8683,VALID,0,VALID,23.7207,VALID,103,VALID,0,
2011-03-23, 02:19:04,VALID,998.459,VALID,0,VALID,91.8606,VALID,0,VALID,23.7207,VALID,103,VALID,0,
2011-03-23, 02:20:04,VALID,998.441,VALID,0,VALID,91.8454,VALID,0,VALID,23.7012,VALID,103,VALID,0,
2011-03-23, 02:21:04,VALID,998.445,VALID,0,VALID,91.8301,VALID,0,VALID,23.7012,VALID,103,VALID,0,
2011-03-23, 02:22:04,VALID,998.461,VALID,0,VALID,91.8454,VALID,0,VALID,23.7012,VALID,103,VALID,0,
2011-03-23, 02:23:04,VALID,998.45,VALID,0,VALID,91.8759,VALID,0,VALID,23.6817,VALID,103,VALID,0,
2011-03-23, 02:24:04,VALID,998.46,VALID,0,VALID,91.8911,VALID,0,VALID,23.6817,VALID,103,VALID,0,
2011-03-23, 02:25:04,VALID,998.468,VALID,0,VALID,91.9293,VALID,0,VALID,23.6817,VALID,103,VALID,0,
2011-03-23, 02:26:04,VALID,998.43,VALID,0,VALID,91.9369,VALID,0,VALID,23.6817,VALID,103,VALID,0,
2011-03-23, 02:27:04,VALID,998.411,VALID,0,VALID,91.9827,VALID,0,VALID,23.6817,VALID,103,VALID,0,
2011-03-23, 02:28:04,VALID,998.416,VALID,0,VALID,91.998,VALID,0,VALID,23.6817,VALID,103,VALID,0,
2011-03-23, 02:29:04,VALID,998.422,VALID,0,VALID,92.0056,VALID,0,VALID,23.6604,VALID,103,VALID,0,
2011-03-23, 02:30:04,VALID,998.383,VALID,0,VALID,92.0437,VALID,0,VALID,23.6604,VALID,103,VALID,0,
2011-03-23, 02:31:04,VALID,998.39,VALID,0,VALID,92.0514,VALID,0,VALID,23.6622,VALID,103,VALID,0,
2011-03-23, 02:32:04,VALID,998.398,VALID,0,VALID,92.0361,VALID,0,VALID,23.6622,VALID,103,VALID,0,
2011-03-23, 02:33:04,VALID,998.388,VALID,0,VALID,92.059,VALID,0,VALID,23.6409,VALID,153,VALID,0,
2011-03-23, 02:34:04,VALID,998.402,VALID,0,VALID,92.0666,VALID,0,VALID,23.6817,VALID,153,VALID,0,
2011-03-23, 02:35:04,VALID,998.395,VALID,0,VALID,92.0361,VALID,0,VALID,23.6817,VALID,141,VALID,0,
2011-03-23, 02:36:04,VALID,998.373,VALID,0,VALID,92.0285,VALID,0,VALID,23.6604,VALID,141,VALID,0,
2011-03-23, 02:37:04,VALID,998.407,VALID,0.5,VALID,92.0209,VALID,0,VALID,23.6622,VALID,141,VALID,0,
2011-03-23, 02:38:04,VALID,998.404,VALID,0,VALID,92.0132,VALID,0,VALID,23.6604,VALID,141,VALID,0,
2011-03-23, 02:39:04,VALID,998.4,VALID,0,VALID,92.0361,VALID,0,VALID,23.6994,VALID,141,VALID,0,
2011-03-23, 02:40:04,VALID,998.372,VALID,0,VALID,92.0361,VALID,0,VALID,23.7207,VALID,141,VALID,0,
2011-03-23, 02:41:04,VALID,998.38,VALID,0,VALID,92.0285,VALID,0,VALID,23.7207,VALID,141,VALID,0,
2011-03-23, 02:42:04,VALID,998.344,VALID,0,VALID,92.0437,VALID,0.112286,VALID,23.7207,VALID,141,VALID,0,
2011-03-23, 02:43:04,VALID,998.333,VALID,0,VALID,92.0437,VALID,0,VALID,23.7189,VALID,141,VALID,0,
2011-03-23, 02:44:04,VALID,998.301,VALID,0,VALID,92.0285,VALID,0.112286,VALID,23.7384,VALID,141,VALID,0,
2011-03-23, 02:45:04,VALID,998.282,VALID,0,VALID,92.0209,VALID,0,VALID,23.7384,VALID,141,VALID,0,
2011-03-23, 02:46:04,VALID,998.25,VALID,0,VALID,92.0056,VALID,0,VALID,23.7402,VALID,164,VALID,0,
2011-03-23, 02:47:04,VALID,998.233,VALID,0,VALID,91.9827,VALID,0,VALID,23.7616,VALID,176,VALID,0,
2011-03-23, 02:48:04,VALID,998.272,VALID,0,VALID,91.9674,VALID,0,VALID,23.7384,VALID,176,VALID,0,
2011-03-23, 02:49:04,VALID,998.265,VALID,0,VALID,91.9598,VALID,0,VALID,23.7384,VALID,176,VALID,0,
2011-03-23, 02:50:04,VALID,998.247,VALID,0,VALID,91.9674,VALID,0,VALID,23.7402,VALID,176,VALID,0,
2011-03-23, 02:51:04,VALID,998.24,VALID,0,VALID,91.9598,VALID,0,VALID,23.7012,VALID,176,VALID,0,
2011-03-23, 02:52:04,VALID,998.227,VALID,0,VALID,91.9522,VALID,0,VALID,23.7207,VALID,176,VALID,0,
2011-03-23, 02:53:04,VALID,998.265,VALID,0,VALID,91.9903,VALID,0,VALID,23.7012,VALID,176,VALID,0,
2011-03-23, 02:54:04,VALID,998.246,VALID,0,VALID,92.0285,VALID,0,VALID,23.6817,VALID,176,VALID,0,
2011-03-23, 02:55:04,VALID,998.208,VALID,0,VALID,92.059,VALID,0,VALID,23.6622,VALID,176,VALID,0,
2011-03-23, 02:56:04,VALID,998.209,VALID,0,VALID,92.0819,VALID,0,VALID,23.6214,VALID,176,VALID,0,
2011-03-23, 02:57:04,VALID,998.167,VALID,0,VALID,92.1124,VALID,0,VALID,23.6214,VALID,176,VALID,0,
2011-03-23, 02:58:04,VALID,998.163,VALID,0,VALID,92.1506,VALID,0,VALID,23.6232,VALID,176,VALID,0,
2011-03-23, 02:59:04,VALID,998.15,VALID,0,VALID,92.1734,VALID,0,VALID,23.6036,VALID,176,VALID,0,
2011-03-23, 03:00:04,VALID,998.127,VALID,0,VALID,92.1734,VALID,0,VALID,23.5841,VALID,176,VALID,0,
2011-03-23, 03:01:04,VALID,998.1,VALID,0,VALID,92.2116,VALID,0,VALID,23.5841,VALID,176,VALID,0,
2011-03-23, 03:02:04,VALID,998.088,VALID,0,VALID,92.2192,VALID,0,VALID,23.5646,VALID,176,VALID,0,
2011-03-23, 03:03:04,VALID,998.062,VALID,0,VALID,92.2421,VALID,0,VALID,23.5451,VALID,176,VALID,0,
2011-03-23, 03:04:04,VALID,998.053,VALID,0,VALID,92.2268,VALID,0,VALID,23.5451,VALID,176,VALID,0,
2011-03-23, 03:05:04,VALID,998.049,VALID,0,VALID,92.265,VALID,0,VALID,23.5256,VALID,176,VALID,0,
2011-03-23, 03:06:04,VALID,998.075,VALID,0,VALID,92.2955,VALID,0,VALID,23.5061,VALID,176,VALID,0,
2011-03-23, 03:07:04,VALID,998.06,VALID,0,VALID,92.3413,VALID,0,VALID,23.4653,VALID,176,VALID,0,
2011-03-23, 03:08:04,VALID,998.027,VALID,0,VALID,92.3489,VALID,0,VALID,23.4653,VALID,176,VALID,0,
2011-03-23, 03:09:04,VALID,998.046,VALID,0,VALID,92.3566,VALID,0.112286,VALID,23.4653,VALID,176,VALID,0,
2011-03-23, 03:10:04,VALID,998.039,VALID,0,VALID,92.3871,VALID,0,VALID,23.4475,VALID,176,VALID,0,
2011-03-23, 03:11:04,VALID,998.021,VALID,0,VALID,92.4023,VALID,0,VALID,23.4458,VALID,176,VALID,0,
2011-03-23, 03:12:04,VALID,998.029,VALID,0,VALID,92.4405,VALID,0,VALID,23.4866,VALID,176,VALID,0,
2011-03-23, 03:13:04,VALID,998.025,VALID,0,VALID,92.4481,VALID,0,VALID,23.4671,VALID,176,VALID,0,
2011-03-23, 03:14:04,VALID,998.025,VALID,0,VALID,92.4634,VALID,0,VALID,23.4653,VALID,176,VALID,0,
2011-03-23, 03:15:04,VALID,998.046,VALID,0,VALID,92.5015,VALID,0,VALID,23.4671,VALID,176,VALID,0,
2011-03-23, 03:16:04,VALID,998.056,VALID,0,VALID,92.5244,VALID,0,VALID,23.4671,VALID,176,VALID,0,
2011-03-23, 03:17:04,VALID,998.066,VALID,0,VALID,92.5397,VALID,0,VALID,23.4653,VALID,176,VALID,0,
2011-03-23, 03:18:04,VALID,998.079,VALID,0,VALID,92.5397,VALID,0,VALID,23.4653,VALID,176,VALID,0,
2011-03-23, 03:19:04,VALID,998.092,VALID,0,VALID,92.5626,VALID,0,VALID,23.4866,VALID,176,VALID,0,
2011-03-23, 03:20:04,VALID,998.081,VALID,0,VALID,92.5931,VALID,0,VALID,23.4671,VALID,176,VALID,0,
2011-03-23, 03:21:04,VALID,998.064,VALID,0,VALID,92.616,VALID,0,VALID,23.4458,VALID,176,VALID,0,
2011-03-23, 03:22:04,VALID,998.055,VALID,0,VALID,92.616,VALID,0,VALID,23.4458,VALID,176,VALID,0,
2011-03-23, 03:23:04,VALID,998.045,VALID,0,VALID,92.6312,VALID,0,VALID,23.4475,VALID,176,VALID,0,
2011-03-23, 03:24:04,VALID,998.032,VALID,0,VALID,92.6617,VALID,0,VALID,23.428,VALID,176,VALID,0,
2011-03-23, 03:25:04,VALID,998.036,VALID,0,VALID,92.6617,VALID,0,VALID,23.4475,VALID,176,VALID,0,
2011-03-23, 03:26:04,VALID,998.007,VALID,0,VALID,92.6694,VALID,0,VALID,23.4671,VALID,176,VALID,0,
2011-03-23, 03:27:04,VALID,997.977,VALID,0,VALID,92.6846,VALID,0,VALID,23.4671,VALID,176,VALID,0,
2011-03-23, 03:28:04,VALID,997.984,VALID,0,VALID,92.7304,VALID,0,VALID,23.4458,VALID,176,VALID,0,
2011-03-23, 03:29:04,VALID,997.976,VALID,0,VALID,92.6999,VALID,0,VALID,23.4671,VALID,176,VALID,0,
2011-03-23, 03:30:04,VALID,997.964,VALID,0,VALID,92.7228,VALID,0,VALID,23.4866,VALID,176,VALID,0,
2011-03-23, 03:31:04,VALID,997.939,VALID,0,VALID,92.7151,VALID,0,VALID,23.4866,VALID,176,VALID,0,
2011-03-23, 03:32:04,VALID,997.912,VALID,0,VALID,92.7151,VALID,0,VALID,23.4866,VALID,176,VALID,0,
2011-03-23, 03:33:04,VALID,997.915,VALID,0,VALID,92.7533,VALID,0,VALID,23.5061,VALID,176,VALID,0,
2011-03-23, 03:34:04,VALID,997.908,VALID,0,VALID,92.7304,VALID,0,VALID,23.4848,VALID,176,VALID,0,
2011-03-23, 03:35:04,VALID,997.91,VALID,0,VALID,92.7304,VALID,0,VALID,23.5061,VALID,176,VALID,0,
2011-03-23, 03:36:04,VALID,997.932,VALID,0,VALID,92.738,VALID,0,VALID,23.4671,VALID,176,VALID,0,
2011-03-23, 03:37:04,VALID,997.933,VALID,0,VALID,92.7609,VALID,0,VALID,23.4884,VALID,176,VALID,0,
2011-03-23, 03:38:04,VALID,997.944,VALID,0,VALID,92.738,VALID,0,VALID,23.4475,VALID,176,VALID,0,
2011-03-23, 03:39:04,VALID,997.94,VALID,0,VALID,92.738,VALID,0,VALID,23.428,VALID,176,VALID,0,
2011-03-23, 03:40:04,VALID,997.972,VALID,0,VALID,92.7304,VALID,0,VALID,23.428,VALID,176,VALID,0,
2011-03-23, 03:41:04,VALID,997.938,VALID,0,VALID,92.7457,VALID,0,VALID,23.428,VALID,176,VALID,0,
2011-03-23, 03:42:04,VALID,997.949,VALID,0,VALID,92.7609,VALID,0,VALID,23.428,VALID,175,VALID,0,
2011-03-23, 03:43:04,VALID,997.962,VALID,0,VALID,92.7762,VALID,0,VALID,23.4085,VALID,168,VALID,0,
2011-03-23, 03:44:04,VALID,997.967,VALID,0,VALID,92.7838,VALID,0,VALID,23.4085,VALID,168,VALID,0,
2011-03-23, 03:45:04,VALID,997.964,VALID,0,VALID,92.7991,VALID,0,VALID,23.4085,VALID,168,VALID,0,
2011-03-23, 03:46:04,VALID,997.971,VALID,0,VALID,92.8067,VALID,0,VALID,23.389,VALID,168,VALID,0,
2011-03-23, 03:47:04,VALID,997.947,VALID,0,VALID,92.8372,VALID,0,VALID,23.4085,VALID,168,VALID,0,
2011-03-23, 03:48:04,VALID,997.954,VALID,0,VALID,92.8525,VALID,0,VALID,23.4085,VALID,168,VALID,0,
2011-03-23, 03:49:04,VALID,997.977,VALID,0,VALID,92.883,VALID,0,VALID,23.428,VALID,168,VALID,0,
2011-03-23, 03:50:04,VALID,997.965,VALID,0,VALID,92.883,VALID,0,VALID,23.428,VALID,168,VALID,0,
2011-03-23, 03:51:04,VALID,997.949,VALID,0,VALID,92.9135,VALID,0,VALID,23.428,VALID,168,VALID,0,
2011-03-23, 03:52:04,VALID,997.945,VALID,0,VALID,92.9135,VALID,0,VALID,23.389,VALID,168,VALID,0,
2011-03-23, 03:53:04,VALID,997.979,VALID,0,VALID,92.9211,VALID,0,VALID,23.3695,VALID,168,VALID,0,
2011-03-23, 03:54:04,VALID,997.947,VALID,0,VALID,92.9364,VALID,0,VALID,23.35,VALID,168,VALID,0,
2011-03-23, 03:55:04,VALID,997.949,VALID,0,VALID,92.9593,VALID,0,VALID,23.311,VALID,168,VALID,0,
2011-03-23, 03:56:04,VALID,997.946,VALID,0,VALID,92.9593,VALID,0,VALID,23.311,VALID,168,VALID,0,
2011-03-23, 03:57:04,VALID,997.972,VALID,0,VALID,92.9517,VALID,0,VALID,23.3092,VALID,126,VALID,0,
2011-03-23, 03:58:04,VALID,997.969,VALID,0,VALID,92.9745,VALID,0,VALID,23.3305,VALID,126,VALID,0,
2011-03-23, 03:59:04,VALID,997.956,VALID,0,VALID,92.9974,VALID,0,VALID,23.3305,VALID,85,VALID,0,